^^
Station Historical Data
 
Daily Summary for July 15, 2018 Units:  Metric    English   Both
« Previous Day
Next Day »
Daily Weekly Monthly Yearly Custom
  Current: High: Low: Average:
Temperature: 28.6 °C -17.8 °C 17.1 °C 24.7 °C
Dew Point: 17.1 °C -17.8 °C 13.4 °C 16.4 °C
Humidity: 50 % Humidity % 33 % 65 %
Wind Speed: 0 km/h 0 km/h 0 km/h 0.5 km/h
Wind Gust: 0 km/h 0 km/h - -
Wind:Calm - - WNW
Pressure: 1012.4 hPa 0 hPa 1011.1 hPa -
Precipitation: 0.25 mm      
Historical Graphs
 
 
Tabular Data for July 15, 2018
Time Temperature Dew Point Pressure Wind Wind Speed Wind Gust Humidity Rainfall Rate (Hourly) solar Conditions
-17.8 °C -17.8 °C 0 hPa Calm     Humidity % 0 mm SoftwareType W/m2 Conditions
00:00 20 °C 17.9 °C 1012.8 hPa Calm     88 % 0 mm WeatherDisplay:10.37 W/m2 RA
00:05 19.9 °C 17.9 °C 1012.8 hPa Calm     88 % 0 mm WeatherDisplay:10.37 W/m2 RA
00:10 19.9 °C 17.8 °C 1012.8 hPa Calm     88 % 0 mm WeatherDisplay:10.37 W/m2 FEW
00:15 19.8 °C 17.8 °C 1012.4 hPa Calm     88 % 0 mm WeatherDisplay:10.37 W/m2 FEW
00:20 19.8 °C 17.7 °C 1012.4 hPa Calm     88 % 0 mm WeatherDisplay:10.37 W/m2 FEW
00:25 19.7 °C 17.7 °C 1012.4 hPa Calm     88 % 0 mm WeatherDisplay:10.37 W/m2 FEW
00:30 19.7 °C 17.8 °C 1012.4 hPa Calm     89 % 0 mm WeatherDisplay:10.37 W/m2 FEW
00:35 19.7 °C 17.8 °C 1012.4 hPa Calm     89 % 0 mm WeatherDisplay:10.37 W/m2 FEW
00:40 19.6 °C 17.7 °C 1012.4 hPa Calm     89 % 0 mm WeatherDisplay:10.37 W/m2 FEW
00:45 19.6 °C 17.5 °C 1012.4 hPa Calm     88 % 0 mm WeatherDisplay:10.37 W/m2 FEW
00:50 19.5 °C 17.4 °C 1012.4 hPa Calm     88 % 0 mm WeatherDisplay:10.37 W/m2 FEW
00:55 19.4 °C 17.4 °C 1012.4 hPa Calm     88 % 0 mm WeatherDisplay:10.37 W/m2 FEW
01:00 19.3 °C 17.3 °C 1012.4 hPa Calm     88 % 0 mm WeatherDisplay:10.37 W/m2 FEW
01:05 19.3 °C 17.4 °C 1012.4 hPa Calm     89 % 0 mm WeatherDisplay:10.37 W/m2 FEW
01:10 19.2 °C 17.4 °C 1012.1 hPa Calm     89 % 0 mm WeatherDisplay:10.37 W/m2 FEW
01:15 19.2 °C 17.3 °C 1012.1 hPa Calm     89 % 0 mm WeatherDisplay:10.37 W/m2 FEW
01:20 19.1 °C 17.3 °C 1012.1 hPa Calm     89 % 0 mm WeatherDisplay:10.37 W/m2 FEW
01:25 19.1 °C 17.2 °C 1012.1 hPa Calm     89 % 0 mm WeatherDisplay:10.37 W/m2 FEW
01:30 19 °C 17.2 °C 1012.1 hPa Calm     89 % 0 mm WeatherDisplay:10.37 W/m2 FEW
01:35 18.9 °C 17.3 °C 1012.4 hPa Calm     90 % 0 mm WeatherDisplay:10.37 W/m2 FEW
01:40 18.9 °C 17.2 °C 1012.4 hPa Calm     90 % 0 mm WeatherDisplay:10.37 W/m2 FEW
01:45 18.8 °C 17.2 °C 1012.4 hPa Calm     90 % 0 mm WeatherDisplay:10.37 W/m2 FEW
01:50 18.8 °C 17.2 °C 1012.4 hPa Calm     90 % 0 mm WeatherDisplay:10.37 W/m2 FEW
01:55 18.8 °C 17.1 °C 1012.4 hPa Calm     90 % 0 mm WeatherDisplay:10.37 W/m2 FEW
02:00 18.8 °C 17.3 °C 1013.1 hPa WNW 3.2 km/h 9.7 km/h 91 % 0 mm WeatherDisplay:10.37 W/m2 FEW
02:05 19 °C 17.7 °C 1013.1 hPa NW 1.6 km/h 12.9 km/h 92 % 0 mm WeatherDisplay:10.37 W/m2 FEW
02:10 19.1 °C 17.8 °C 1012.8 hPa NNW 3.2 km/h 14.5 km/h 92 % 0 mm WeatherDisplay:10.37 W/m2 FEW
02:15 19.2 °C 17.7 °C 1012.8 hPa Calm   6.4 km/h 91 % 0 mm WeatherDisplay:10.37 W/m2 FEW
02:20 19.4 °C 17.7 °C 1012.8 hPa NNW 3.2 km/h 12.9 km/h 90 % 0 mm WeatherDisplay:10.37 W/m2 FEW
02:25 19.6 °C 17.7 °C 1012.4 hPa NNW 4.8 km/h 11.3 km/h 89 % 0 mm WeatherDisplay:10.37 W/m2 FEW
02:30 19.7 °C 17.7 °C 1012.4 hPa Calm   4.8 km/h 88 % 0 mm WeatherDisplay:10.37 W/m2 FEW
02:35 19.8 °C 17.6 °C 1012.1 hPa Calm   1.6 km/h 87 % 0 mm WeatherDisplay:10.37 W/m2 FEW
02:40 19.9 °C 17.7 °C 1012.1 hPa Calm     87 % 0 mm WeatherDisplay:10.37 W/m2 FEW
02:45 19.9 °C 17.9 °C 1012.1 hPa NNW 3.2 km/h 9.7 km/h 88 % 0.25 mm WeatherDisplay:10.37 W/m2 RA
02:50 19.9 °C 17.8 °C 1012.1 hPa Calm   4.8 km/h 88 % 0 mm WeatherDisplay:10.37 W/m2 RA
02:55 19.8 °C 17.8 °C 1012.1 hPa Calm   6.4 km/h 88 % 0 mm WeatherDisplay:10.37 W/m2 FEW
03:00 19.8 °C 17.9 °C 1012.1 hPa Calm   1.6 km/h 89 % 0 mm WeatherDisplay:10.37 W/m2 FEW
03:05 19.7 °C 17.8 °C 1011.7 hPa Calm     89 % 0 mm WeatherDisplay:10.37 W/m2 FEW
03:10 19.6 °C 17.7 °C 1011.4 hPa Calm     89 % 0 mm WeatherDisplay:10.37 W/m2 FEW
03:15 19.6 °C 17.7 °C 1011.1 hPa Calm     89 % 0 mm WeatherDisplay:10.37 W/m2 FEW
03:20 19.5 °C 17.6 °C 1011.1 hPa Calm     89 % 0 mm WeatherDisplay:10.37 W/m2 FEW
03:25 19.4 °C 17.7 °C 1011.4 hPa Calm     90 % 0 mm WeatherDisplay:10.37 W/m2 FEW
03:30 19.4 °C 17.7 °C 1011.4 hPa Calm     90 % 0 mm WeatherDisplay:10.37 W/m2 FEW
03:35 19.3 °C 17.6 °C 1011.4 hPa Calm     90 % 0 mm WeatherDisplay:10.37 W/m2 FEW
03:40 19.2 °C 17.6 °C 1011.4 hPa Calm     90 % 0 mm WeatherDisplay:10.37 W/m2 FEW
03:45 19.2 °C 17.7 °C 1011.4 hPa Calm     91 % 0 mm WeatherDisplay:10.37 W/m2 FEW
03:50 19.1 °C 17.6 °C 1011.4 hPa Calm     91 % 0 mm WeatherDisplay:10.37 W/m2 FEW
03:55 19 °C 17.5 °C 1011.4 hPa Calm     91 % 0 mm WeatherDisplay:10.37 W/m2 FEW
04:00 18.9 °C 17.4 °C 1011.7 hPa Calm     91 % 0 mm WeatherDisplay:10.37 W/m2 FEW
04:05 18.8 °C 17.3 °C 1011.7 hPa Calm     91 % 0 mm WeatherDisplay:10.37 W/m2 FEW
04:10 18.8 °C 17.3 °C 1011.4 hPa Calm     91 % 0 mm WeatherDisplay:10.37 W/m2 FEW
04:15 18.7 °C 17.2 °C 1011.4 hPa Calm     91 % 0 mm WeatherDisplay:10.37 W/m2 FEW
04:20 18.6 °C 17.1 °C 1011.7 hPa Calm     91 % 0 mm WeatherDisplay:10.37 W/m2 FEW
04:25 18.5 °C 17 °C 1011.7 hPa Calm     91 % 0 mm WeatherDisplay:10.37 W/m2 FEW
04:30 18.4 °C 16.9 °C 1011.7 hPa Calm     91 % 0 mm WeatherDisplay:10.37 W/m2 FEW
04:35 18.3 °C 16.8 °C 1011.7 hPa Calm     91 % 0 mm WeatherDisplay:10.37 W/m2 FEW
04:40 18.3 °C 16.8 °C 1011.7 hPa Calm     91 % 0 mm WeatherDisplay:10.37 W/m2 FEW
04:45 18.2 °C 16.7 °C 1011.7 hPa Calm     91 % 0 mm WeatherDisplay:10.37 W/m2 FEW
04:50 18.1 °C 16.6 °C 1011.7 hPa Calm     91 % 0 mm WeatherDisplay:10.37 W/m2 FEW
04:55 18 °C 16.5 °C 1011.7 hPa Calm     91 % 0 mm WeatherDisplay:10.37 W/m2 FEW
05:00 17.9 °C 16.4 °C 1012.1 hPa Calm     91 % 0 mm WeatherDisplay:10.37 W/m2 FEW
05:05 17.9 °C 16.4 °C 1012.1 hPa Calm     91 % 0 mm WeatherDisplay:10.37 W/m2 FEW
05:10 17.8 °C 16.3 °C 1012.1 hPa Calm     91 % 0 mm WeatherDisplay:10.37 W/m2 FEW
05:15 17.7 °C 16.2 °C 1012.1 hPa Calm     91 % 0 mm WeatherDisplay:10.37 W/m2 FEW
05:20 17.7 °C 16.2 °C 1012.1 hPa Calm     91 % 0 mm WeatherDisplay:10.37 W/m2 FEW
05:25 17.6 °C 16.3 °C 1012.1 hPa Calm     92 % 0 mm WeatherDisplay:10.37 W/m2 FEW
05:30 17.5 °C 16.2 °C 1012.1 hPa Calm     92 % 0 mm WeatherDisplay:10.37 W/m2 FEW
05:35 17.4 °C 16.1 °C 1012.1 hPa Calm     92 % 0 mm WeatherDisplay:10.37 W/m2 FEW
05:40 17.4 °C 16.1 °C 1012.4 hPa Calm     92 % 0 mm WeatherDisplay:10.37 W/m2 FEW
05:45 17.3 °C 16 °C 1012.4 hPa Calm     92 % 0 mm WeatherDisplay:10.37 W/m2 FEW
05:50 17.3 °C 15.9 °C 1012.4 hPa Calm     92 % 0 mm WeatherDisplay:10.37 W/m2 FEW
05:55 17.2 °C 15.9 °C 1012.4 hPa Calm     92 % 0 mm WeatherDisplay:10.37 W/m2 FEW
06:00 17.2 °C 15.9 °C 1012.4 hPa Calm     92 % 0 mm WeatherDisplay:10.37 W/m2 FEW
06:05 17.2 °C 15.8 °C 1012.4 hPa Calm     92 % 0 mm WeatherDisplay:10.37 W/m2 FEW
06:10 17.1 °C 15.8 °C 1012.8 hPa Calm     92 % 0 mm WeatherDisplay:10.37 W/m2 FEW
06:15 17.1 °C 15.8 °C 1012.8 hPa Calm     92 % 0 mm WeatherDisplay:10.37 W/m2 FEW
06:20 17.1 °C 15.9 °C 1012.8 hPa Calm     93 % 0 mm WeatherDisplay:10.37 W/m2 FEW
06:25 17.1 °C 15.9 °C 1012.8 hPa Calm     93 % 0 mm WeatherDisplay:10.37 W/m2 FEW
06:30 17.1 °C 15.9 °C 1012.8 hPa Calm     93 % 0 mm WeatherDisplay:10.37 W/m2 FEW
06:35 17.1 °C 15.9 °C 1012.8 hPa Calm     93 % 0 mm WeatherDisplay:10.37 W/m2 FEW
06:40 17.1 °C 15.9 °C 1012.8 hPa Calm     93 % 0 mm WeatherDisplay:10.37 W/m2 FEW
06:45 17.1 °C 16.1 °C 1012.8 hPa Calm     94 % 0 mm WeatherDisplay:10.37 W/m2 FEW
06:50 17.1 °C 16.1 °C 1012.8 hPa Calm     94 % 0 mm WeatherDisplay:10.37 W/m2 FEW
06:55 17.2 °C 16.2 °C 1012.8 hPa Calm     94 % 0 mm WeatherDisplay:10.37 W/m2 FEW
07:00 17.2 °C 16.2 °C 1012.8 hPa Calm     94 % 0 mm WeatherDisplay:10.37 W/m2 FEW
07:05 17.3 °C 16.3 °C 1012.8 hPa Calm     94 % 0 mm WeatherDisplay:10.37 W/m2 FEW
07:10 17.3 °C 16.4 °C 1012.8 hPa Calm     94 % 0 mm WeatherDisplay:10.37 W/m2 FEW
07:15 17.4 °C 16.6 °C 1012.8 hPa Calm     95 % 0 mm WeatherDisplay:10.37 W/m2 FEW
07:20 17.6 °C 16.8 °C 1012.8 hPa Calm     95 % 0 mm WeatherDisplay:10.37 W/m2 FEW
07:25 17.7 °C 16.9 °C 1012.8 hPa Calm     95 % 0 mm WeatherDisplay:10.37 W/m2 FEW
07:30 17.8 °C 17 °C 1012.8 hPa Calm     95 % 0 mm WeatherDisplay:10.37 W/m2 FEW
07:35 17.9 °C 17.3 °C 1012.8 hPa Calm     96 % 0 mm WeatherDisplay:10.37 W/m2 FEW
07:40 18.1 °C 17.4 °C 1013.1 hPa Calm     96 % 0 mm WeatherDisplay:10.37 W/m2 FEW
07:45 18.2 °C 17.6 °C 1013.1 hPa Calm     96 % 0 mm WeatherDisplay:10.37 W/m2 FEW
07:50 18.3 °C 17.7 °C 1013.1 hPa Calm     96 % 0 mm WeatherDisplay:10.37 W/m2 FEW
07:55 18.5 °C 17.8 °C 1013.1 hPa Calm     96 % 0 mm WeatherDisplay:10.37 W/m2 FEW
08:00 18.7 °C 18 °C 1013.1 hPa Calm     96 % 0 mm WeatherDisplay:10.37 W/m2 FEW
08:05 18.8 °C 18.2 °C 1013.1 hPa Calm     96 % 0 mm WeatherDisplay:10.37 W/m2 FEW
08:10 19 °C 18.3 °C 1013.1 hPa Calm     96 % 0 mm WeatherDisplay:10.37 W/m2 FEW
08:15 19.1 °C 18.4 °C 1013.1 hPa Calm   4.8 km/h 96 % 0 mm WeatherDisplay:10.37 W/m2 FEW
08:20 19.2 °C 18.4 °C 1013.1 hPa Calm     95 % 0 mm WeatherDisplay:10.37 W/m2 FEW
08:25 19.4 °C 18.4 °C 1013.4 hPa Calm     94 % 0 mm WeatherDisplay:10.37 W/m2 FEW
08:30 19.6 °C 18.3 °C 1013.4 hPa Calm   1.6 km/h 92 % 0 mm WeatherDisplay:10.37 W/m2 FEW
08:35 19.9 °C 18.2 °C 1013.4 hPa NNE 1.6 km/h 4.8 km/h 90 % 0 mm WeatherDisplay:10.37 W/m2 FEW
08:40 20.2 °C 17.7 °C 1013.4 hPa Calm     86 % 0 mm WeatherDisplay:10.37 W/m2 FEW
08:45 20.5 °C 17.7 °C 1013.4 hPa Calm   4.8 km/h 84 % 0 mm WeatherDisplay:10.37 W/m2 FEW
08:50 20.9 °C 17.9 °C 1013.4 hPa Calm   1.6 km/h 83 % 0 mm WeatherDisplay:10.37 W/m2 FEW
08:55 21.3 °C 17.9 °C 1013.4 hPa Calm   6.4 km/h 81 % 0 mm WeatherDisplay:10.37 W/m2 FEW
09:00 21.6 °C 18 °C 1013.4 hPa Calm     80 % 0 mm WeatherDisplay:10.37 W/m2 FEW
09:05 21.9 °C 17.5 °C 1013.1 hPa Calm   9.7 km/h 76 % 0 mm WeatherDisplay:10.37 W/m2 FEW
09:10 22.2 °C 17.3 °C 1013.1 hPa Calm   9.7 km/h 74 % 0 mm WeatherDisplay:10.37 W/m2 FEW
09:15 22.4 °C 17.3 °C 1013.1 hPa NNW 1.6 km/h 6.4 km/h 73 % 0 mm WeatherDisplay:10.37 W/m2 FEW
09:20 22.7 °C 17.3 °C 1013.1 hPa Calm   8 km/h 72 % 0 mm WeatherDisplay:10.37 W/m2 FEW
09:25 22.9 °C 17.3 °C 1013.1 hPa Calm   4.8 km/h 71 % 0 mm WeatherDisplay:10.37 W/m2 FEW
09:30 23.1 °C 17.3 °C 1013.1 hPa North 1.6 km/h 6.4 km/h 70 % 0 mm WeatherDisplay:10.37 W/m2 FEW
09:35 23.3 °C 17.5 °C 1013.1 hPa Calm   4.8 km/h 70 % 0 mm WeatherDisplay:10.37 W/m2 FEW
09:40 23.5 °C 17.4 °C 1013.1 hPa NW 1.6 km/h 14.5 km/h 69 % 0 mm WeatherDisplay:10.37 W/m2 FEW
09:45 23.8 °C 17.7 °C 1013.1 hPa Calm     69 % 0 mm WeatherDisplay:10.37 W/m2 FEW
09:50 24.1 °C 17.5 °C 1013.1 hPa Calm   6.4 km/h 67 % 0 mm WeatherDisplay:10.37 W/m2 FEW
09:55 24.3 °C 17.5 °C 1013.1 hPa Calm     66 % 0 mm WeatherDisplay:10.37 W/m2 FEW
10:00 24.6 °C 18.3 °C 1013.1 hPa Calm   1.6 km/h 68 % 0 mm WeatherDisplay:10.37 W/m2 FEW
10:05 24.9 °C 17.9 °C 1013.1 hPa Calm   1.6 km/h 65 % 0 mm WeatherDisplay:10.37 W/m2 FEW
10:10 25.2 °C 17.4 °C 1013.1 hPa Calm     62 % 0 mm WeatherDisplay:10.37 W/m2 FEW
10:15 25.4 °C 17.6 °C 1013.1 hPa NNE 1.6 km/h 8 km/h 62 % 0 mm WeatherDisplay:10.37 W/m2 FEW
10:20 25.7 °C 17.8 °C 1013.1 hPa Calm   3.2 km/h 62 % 0 mm WeatherDisplay:10.37 W/m2 FEW
10:25 25.9 °C 17.5 °C 1013.1 hPa Calm   1.6 km/h 60 % 0 mm WeatherDisplay:10.37 W/m2 FEW
10:30 26.1 °C 17.7 °C 1013.1 hPa Calm   4.8 km/h 60 % 0 mm WeatherDisplay:10.37 W/m2 FEW
10:35 26.3 °C 18.2 °C 1013.1 hPa Calm     61 % 0 mm WeatherDisplay:10.37 W/m2 FEW
10:40 26.6 °C 17.7 °C 1013.1 hPa Calm     58 % 0 mm WeatherDisplay:10.37 W/m2 FEW
10:45 26.8 °C 18.1 °C 1013.1 hPa Calm   4.8 km/h 59 % 0 mm WeatherDisplay:10.37 W/m2 FEW
10:50 27 °C 17.4 °C 1012.8 hPa NNW 1.6 km/h 3.2 km/h 56 % 0 mm WeatherDisplay:10.37 W/m2 FEW
10:55 27.2 °C 17.6 °C 1012.8 hPa Calm   1.6 km/h 56 % 0 mm WeatherDisplay:10.37 W/m2 FEW
11:00 27.4 °C 18.1 °C 1012.8 hPa Calm   1.6 km/h 57 % 0 mm WeatherDisplay:10.37 W/m2 FEW
11:05 27.7 °C 18.4 °C 1012.8 hPa Calm   1.6 km/h 57 % 0 mm WeatherDisplay:10.37 W/m2 FEW
11:10 27.9 °C 18.1 °C 1012.8 hPa Calm   1.6 km/h 55 % 0 mm WeatherDisplay:10.37 W/m2 FEW
11:15 28.1 °C 17.9 °C 1012.8 hPa Calm   1.6 km/h 54 % 0 mm WeatherDisplay:10.37 W/m2 FEW
11:20 28.3 °C 18.1 °C 1012.8 hPa Calm     54 % 0 mm WeatherDisplay:10.37 W/m2 FEW
11:25 28.5 °C 18.3 °C 1012.8 hPa Calm   3.2 km/h 54 % 0 mm WeatherDisplay:10.37 W/m2 FEW
11:30 28.7 °C 18.2 °C 1012.8 hPa Calm   3.2 km/h 53 % 0 mm WeatherDisplay:10.37 W/m2 FEW
11:35 28.8 °C 18.3 °C 1012.8 hPa Calm   3.2 km/h 53 % 0 mm WeatherDisplay:10.37 W/m2 FEW
11:40 29.1 °C 18.2 °C 1012.8 hPa Calm   1.6 km/h 52 % 0 mm WeatherDisplay:10.37 W/m2 FEW
11:45 29.2 °C 18 °C 1012.8 hPa Calm   3.2 km/h 51 % 0 mm WeatherDisplay:10.37 W/m2 FEW
11:50 29.3 °C 18.1 °C 1012.8 hPa Calm   1.6 km/h 51 % 0 mm WeatherDisplay:10.37 W/m2 FEW
11:55 29.4 °C 17.9 °C 1012.8 hPa Calm   8 km/h 50 % 0 mm WeatherDisplay:10.37 W/m2 FEW
12:00 29.5 °C 17.7 °C 1012.8 hPa Calm   6.4 km/h 49 % 0 mm WeatherDisplay:10.37 W/m2 FEW
12:05 29.6 °C 17.4 °C 1012.8 hPa Calm   1.6 km/h 48 % 0 mm WeatherDisplay:10.37 W/m2 FEW
12:10 29.7 °C 18.2 °C 1012.8 hPa Calm   1.6 km/h 50 % 0 mm WeatherDisplay:10.37 W/m2 FEW
12:15 29.7 °C 17.6 °C 1012.8 hPa Calm   1.6 km/h 48 % 0 mm WeatherDisplay:10.37 W/m2 FEW
12:20 29.8 °C 17.2 °C 1012.8 hPa Calm   8 km/h 47 % 0 mm WeatherDisplay:10.37 W/m2 FEW
12:25 29.8 °C 17.2 °C 1012.8 hPa Calm   3.2 km/h 47 % 0 mm WeatherDisplay:10.37 W/m2 FEW
12:30 29.7 °C 17.2 °C 1012.4 hPa Calm   11.3 km/h 47 % 0 mm WeatherDisplay:10.37 W/m2 FEW
12:35 29.7 °C 17.2 °C 1012.4 hPa Calm   8 km/h 47 % 0 mm WeatherDisplay:10.37 W/m2 FEW
12:40 29.8 °C 16.2 °C 1012.4 hPa Calm   4.8 km/h 44 % 0 mm WeatherDisplay:10.37 W/m2 FEW
12:45 29.8 °C 16.6 °C 1012.4 hPa Calm   3.2 km/h 45 % 0 mm WeatherDisplay:10.37 W/m2 FEW
12:50 29.9 °C 16 °C 1012.4 hPa Calm   6.4 km/h 43 % 0 mm WeatherDisplay:10.37 W/m2 FEW
12:55 30 °C 15.7 °C 1012.4 hPa Calm   4.8 km/h 42 % 0 mm WeatherDisplay:10.37 W/m2 FEW
13:00 30.1 °C 16.5 °C 1012.4 hPa Calm   3.2 km/h 44 % 0 mm WeatherDisplay:10.37 W/m2 FEW
13:05 30.2 °C 16.9 °C 1012.4 hPa Calm   3.2 km/h 45 % 0 mm WeatherDisplay:10.37 W/m2 FEW
13:10 30.2 °C 15.1 °C 1012.4 hPa Calm   11.3 km/h 40 % 0 mm WeatherDisplay:10.37 W/m2 FEW
13:15 30.4 °C 14.9 °C 1012.4 hPa Calm     39 % 0 mm WeatherDisplay:10.37 W/m2 FEW
13:20 30.5 °C 15.4 °C 1012.8 hPa Calm   1.6 km/h 40 % 0 mm WeatherDisplay:10.37 W/m2 FEW
13:25 30.7 °C 15.6 °C 1012.8 hPa Calm   1.6 km/h 40 % 0 mm WeatherDisplay:10.37 W/m2 FEW
13:30 30.8 °C 15.2 °C 1012.8 hPa Calm   3.2 km/h 39 % 0 mm WeatherDisplay:10.37 W/m2 FEW
13:35 30.8 °C 15.6 °C 1012.4 hPa Calm   1.6 km/h 40 % 0 mm WeatherDisplay:10.37 W/m2 FEW
13:40 30.8 °C 15.6 °C 1012.4 hPa Calm   3.2 km/h 40 % 0 mm WeatherDisplay:10.37 W/m2 FEW
13:45 30.8 °C 16.4 °C 1012.4 hPa Calm   4.8 km/h 42 % 0 mm WeatherDisplay:10.37 W/m2 FEW
13:50 30.9 °C 15.7 °C 1012.4 hPa Calm   3.2 km/h 40 % 0 mm WeatherDisplay:10.37 W/m2 FEW
13:55 31 °C 15.8 °C 1012.4 hPa Calm   6.4 km/h 40 % 0 mm WeatherDisplay:10.37 W/m2 FEW
14:00 31.2 °C 15.6 °C 1012.4 hPa Calm   4.8 km/h 39 % 0 mm WeatherDisplay:10.37 W/m2 FEW
14:05 31.3 °C 15.3 °C 1012.4 hPa Calm   6.4 km/h 38 % 0 mm WeatherDisplay:10.37 W/m2 FEW
14:10 31.4 °C 14.9 °C 1012.4 hPa NW 1.6 km/h 8 km/h 37 % 0 mm WeatherDisplay:10.37 W/m2 FEW
14:15 31.6 °C 14.7 °C 1012.4 hPa NW 3.2 km/h 11.3 km/h 36 % 0 mm WeatherDisplay:10.37 W/m2 FEW
14:20 31.6 °C 14.3 °C 1012.4 hPa NW 3.2 km/h 9.7 km/h 35 % 0 mm WeatherDisplay:10.37 W/m2 FEW
14:25 31.7 °C 13.4 °C 1012.4 hPa North 1.6 km/h 9.7 km/h 33 % 0 mm WeatherDisplay:10.37 W/m2 FEW
14:30 31.8 °C 14 °C 1012.4 hPa Calm   3.2 km/h 34 % 0 mm WeatherDisplay:10.37 W/m2 FEW
14:35 31.8 °C 13.6 °C 1012.4 hPa Calm   6.4 km/h 33 % 0 mm WeatherDisplay:10.37 W/m2 FEW
14:40 31.9 °C 14.1 °C 1012.4 hPa Calm   8 km/h 34 % 0 mm WeatherDisplay:10.37 W/m2 FEW
14:45 31.9 °C 14.1 °C 1012.4 hPa Calm   4.8 km/h 34 % 0 mm WeatherDisplay:10.37 W/m2 FEW
14:50 32.1 °C 15.6 °C 1012.4 hPa Calm   3.2 km/h 37 % 0 mm WeatherDisplay:10.37 W/m2 FEW
14:55 32.2 °C 15.6 °C 1012.4 hPa Calm     37 % 0 mm WeatherDisplay:10.37 W/m2 FEW
15:00 32.3 °C 15.8 °C 1012.4 hPa NNW 1.6 km/h 6.4 km/h 37 % 0 mm WeatherDisplay:10.37 W/m2 FEW
15:05 32.4 °C 15.4 °C 1012.4 hPa Calm   6.4 km/h 36 % 0 mm WeatherDisplay:10.37 W/m2 FEW
15:10 32.6 °C 14.7 °C 1012.4 hPa Calm   4.8 km/h 34 % 0 mm WeatherDisplay:10.37 W/m2 FEW
15:15 32.6 °C 15.1 °C 1012.4 hPa Calm   6.4 km/h 35 % 0 mm WeatherDisplay:10.37 W/m2 FEW
15:20 32.6 °C 14.7 °C 1012.1 hPa Calm   1.6 km/h 34 % 0 mm WeatherDisplay:10.37 W/m2 FEW
15:25 32.5 °C 15.1 °C 1012.1 hPa Calm   8 km/h 35 % 0 mm WeatherDisplay:10.37 W/m2 FEW
15:30 32.2 °C 14.8 °C 1012.1 hPa Calm   6.4 km/h 35 % 0 mm WeatherDisplay:10.37 W/m2 FEW
15:35 32.1 °C 15.2 °C 1012.1 hPa Calm   4.8 km/h 36 % 0 mm WeatherDisplay:10.37 W/m2 FEW
15:40 32.1 °C 15.2 °C 1012.1 hPa Calm   6.4 km/h 36 % 0 mm WeatherDisplay:10.37 W/m2 FEW
15:45 32 °C 15.1 °C 1012.1 hPa NNW 1.6 km/h 9.7 km/h 36 % 0 mm WeatherDisplay:10.37 W/m2 FEW
15:50 31.9 °C 15 °C 1012.1 hPa NNW 8 km/h 14.5 km/h 36 % 0 mm WeatherDisplay:10.37 W/m2 FEW
15:55 31.8 °C 14.9 °C 1012.1 hPa NNE 1.6 km/h 12.9 km/h 36 % 0 mm WeatherDisplay:10.37 W/m2 FEW
16:00 31.8 °C 15.3 °C 1012.1 hPa NNE 1.6 km/h 6.4 km/h 37 % 0 mm WeatherDisplay:10.37 W/m2 FEW
16:05 31.7 °C 14.8 °C 1012.1 hPa NW 1.6 km/h 16.1 km/h 36 % 0 mm WeatherDisplay:10.37 W/m2 FEW
16:10 31.7 °C 15.2 °C 1012.1 hPa Calm   8 km/h 37 % 0 mm WeatherDisplay:10.37 W/m2 FEW
16:15 31.8 °C 15.7 °C 1012.1 hPa NNW 1.6 km/h 4.8 km/h 38 % 0 mm WeatherDisplay:10.37 W/m2 FEW
16:20 31.8 °C 14.5 °C 1012.1 hPa NNW 1.6 km/h 6.4 km/h 35 % 0 mm WeatherDisplay:10.37 W/m2 FEW
16:25 31.8 °C 14.5 °C 1012.1 hPa Calm   6.4 km/h 35 % 0 mm WeatherDisplay:10.37 W/m2 FEW
16:30 31.9 °C 14.5 °C 1012.1 hPa NNW 4.8 km/h 12.9 km/h 35 % 0 mm WeatherDisplay:10.37 W/m2 FEW
16:35 31.9 °C 14.6 °C 1012.1 hPa NNW 1.6 km/h 8 km/h 35 % 0 mm WeatherDisplay:10.37 W/m2 FEW
16:40 31.9 °C 14.6 °C 1012.1 hPa North 1.6 km/h 12.9 km/h 35 % 0 mm WeatherDisplay:10.37 W/m2 FEW
16:45 31.9 °C 15.4 °C 1012.1 hPa Calm   6.4 km/h 37 % 0 mm WeatherDisplay:10.37 W/m2 FEW
16:50 31.9 °C 15.4 °C 1012.1 hPa NW 1.6 km/h 11.3 km/h 37 % 0 mm WeatherDisplay:10.37 W/m2 FEW
16:55 31.9 °C 15.4 °C 1012.1 hPa NW 1.6 km/h 9.7 km/h 37 % 0 mm WeatherDisplay:10.37 W/m2 FEW
17:00 31.9 °C 15.4 °C 1012.1 hPa Calm   11.3 km/h 37 % 0 mm WeatherDisplay:10.37 W/m2 FEW
17:05 31.9 °C 15 °C 1012.1 hPa NNW 4.8 km/h 12.9 km/h 36 % 0 mm WeatherDisplay:10.37 W/m2 FEW
17:10 31.9 °C 15.4 °C 1012.1 hPa North 1.6 km/h 8 km/h 37 % 0 mm WeatherDisplay:10.37 W/m2 FEW
17:15 31.9 °C 14.5 °C 1012.1 hPa Calm   8 km/h 35 % 0 mm WeatherDisplay:10.37 W/m2 FEW
17:20 31.9 °C 15.4 °C 1011.7 hPa Calm     37 % 0 mm WeatherDisplay:10.37 W/m2 FEW
17:25 31.8 °C 15.3 °C 1012.1 hPa Calm   3.2 km/h 37 % 0 mm WeatherDisplay:10.37 W/m2 FEW
17:30 31.8 °C 15.3 °C 1011.7 hPa Calm   3.2 km/h 37 % 0 mm WeatherDisplay:10.37 W/m2 FEW
17:35 31.9 °C 14.9 °C 1011.7 hPa NNW 1.6 km/h 8 km/h 36 % 0 mm WeatherDisplay:10.37 W/m2 FEW
17:40 31.9 °C 15.4 °C 1011.7 hPa NNW 1.6 km/h 8 km/h 37 % 0 mm WeatherDisplay:10.37 W/m2 FEW
17:45 31.9 °C 15 °C 1011.7 hPa Calm   8 km/h 36 % 0 mm WeatherDisplay:10.37 W/m2 FEW
17:50 31.9 °C 15.4 °C 1011.7 hPa NW 3.2 km/h 6.4 km/h 37 % 0 mm WeatherDisplay:10.37 W/m2 FEW
17:55 31.8 °C 14.9 °C 1011.7 hPa NW 1.6 km/h 6.4 km/h 36 % 0 mm WeatherDisplay:10.37 W/m2 FEW
18:00 31.7 °C 14.8 °C 1011.7 hPa NW 3.2 km/h 9.7 km/h 36 % 0 mm WeatherDisplay:10.37 W/m2 FEW
18:05 31.7 °C 14.8 °C 1011.7 hPa Calm   6.4 km/h 36 % 0 mm WeatherDisplay:10.37 W/m2 FEW
18:10 31.5 °C 14.6 °C 1011.7 hPa NW 1.6 km/h 8 km/h 36 % 0 mm WeatherDisplay:10.37 W/m2 FEW
18:15 31.4 °C 14.5 °C 1011.7 hPa Calm   8 km/h 36 % 0 mm WeatherDisplay:10.37 W/m2 FEW
18:20 31.3 °C 14.4 °C 1011.7 hPa Calm   4.8 km/h 36 % 0 mm WeatherDisplay:10.37 W/m2 FEW
18:25 31.2 °C 14.7 °C 1012.1 hPa Calm   8 km/h 37 % 0 mm WeatherDisplay:10.37 W/m2 FEW
18:30 31.1 °C 14.2 °C 1012.1 hPa Calm   8 km/h 36 % 0 mm WeatherDisplay:10.37 W/m2 FEW
18:35 30.9 °C 14.6 °C 1012.1 hPa Calm   9.7 km/h 37 % 0 mm WeatherDisplay:10.37 W/m2 FEW
18:40 30.8 °C 14.4 °C 1012.1 hPa North 1.6 km/h 6.4 km/h 37 % 0 mm WeatherDisplay:10.37 W/m2 FEW
18:45 30.7 °C 14.3 °C 1012.1 hPa NNW 1.6 km/h 9.7 km/h 37 % 0 mm WeatherDisplay:10.37 W/m2 FEW
18:50 30.6 °C 14.3 °C 1012.1 hPa NNW 1.6 km/h 9.7 km/h 37 % 0 mm WeatherDisplay:10.37 W/m2 FEW
18:55 30.6 °C 15 °C 1012.1 hPa NNW 1.6 km/h 9.7 km/h 39 % 0 mm WeatherDisplay:10.37 W/m2 FEW
19:00 30.5 °C 15.8 °C 1012.1 hPa NNW 1.6 km/h 8 km/h 41 % 0 mm WeatherDisplay:10.37 W/m2 FEW
19:05 30.4 °C 16.1 °C 1012.1 hPa Calm   6.4 km/h 42 % 0 mm WeatherDisplay:10.37 W/m2 FEW
19:10 30.3 °C 16.3 °C 1012.4 hPa NNW 1.6 km/h 6.4 km/h 43 % 0 mm WeatherDisplay:10.37 W/m2 FEW
19:15 30.3 °C 16.3 °C 1012.4 hPa NNW 1.6 km/h 8 km/h 43 % 0 mm WeatherDisplay:10.37 W/m2 FEW
19:20 30.2 °C 16.2 °C 1012.4 hPa NNW 1.6 km/h 6.4 km/h 43 % 0 mm WeatherDisplay:10.37 W/m2 FEW
19:25 30.1 °C 16.5 °C 1012.4 hPa Calm   3.2 km/h 44 % 0 mm WeatherDisplay:10.37 W/m2 FEW
19:30 29.9 °C 16.4 °C 1012.4 hPa NNW 1.6 km/h 6.4 km/h 44 % 0 mm WeatherDisplay:10.37 W/m2 FEW
19:35 29.8 °C 16.6 °C 1012.4 hPa Calm   4.8 km/h 45 % 0 mm WeatherDisplay:10.37 W/m2 FEW
19:40 29.7 °C 16.5 °C 1012.4 hPa Calm   3.2 km/h 45 % 0 mm WeatherDisplay:10.37 W/m2 FEW
19:45 29.7 °C 16.4 °C 1012.4 hPa Calm   3.2 km/h 45 % 0 mm WeatherDisplay:10.37 W/m2 FEW
19:50 29.5 °C 16.7 °C 1012.4 hPa Calm   6.4 km/h 46 % 0 mm WeatherDisplay:10.37 W/m2 FEW
19:55 29.3 °C 16.5 °C 1012.4 hPa Calm   1.6 km/h 46 % 0 mm WeatherDisplay:10.37 W/m2 FEW
20:00 29.2 °C 16.7 °C 1012.4 hPa Calm   1.6 km/h 47 % 0 mm WeatherDisplay:10.37 W/m2 FEW
20:05 29.1 °C 16.6 °C 1012.4 hPa Calm     47 % 0 mm WeatherDisplay:10.37 W/m2 FEW
20:10 28.9 °C 16.8 °C 1012.4 hPa Calm     48 % 0 mm WeatherDisplay:10.37 W/m2 FEW
20:15 28.8 °C 17 °C 1012.4 hPa Calm     49 % 0 mm WeatherDisplay:10.37 W/m2 FEW
20:20 28.6 °C 17.1 °C 1012.4 hPa Calm     50 % 0 mm WeatherDisplay:10.37 W/m2 FEW
Juneau County Weather
Compliments of Weather Underground - 2.75 mb